period_start,C,m1,H,J0,J1,J2,J3,J4,J5,JA,JB,JC,JD,JJ,JK,JN,#
2015-12-17 00:01:22,0.27,5.16,0.00,13.45,17.94,21.77,15.08,50.47,1013.68,2065.99,1970.28,2107.98,2349.55,599.97,614.12,23.98,0000 0000 0000 0000 000000
2015-12-17 00:06:24,0.24,5.17,0.00,13.45,17.94,21.71,15.07,50.52,1013.69,2065.99,1967.66,2106.16,2347.58,600.22,614.21,24.03,0000 0000 0000 0000 000000
2015-12-17 00:11:25,0.22,5.18,0.00,13.42,17.94,21.72,15.06,50.63,1013.69,2065.99,1965.27,2104.42,2345.63,599.78,613.90,24.09,0000 0000 0000 0000 000000
2015-12-17 00:16:26,0.25,5.20,0.00,13.38,17.92,21.75,15.11,50.68,1013.69,2065.99,1962.78,2102.54,2343.51,600.13,614.36,24.14,0000 0000 0000 0000 000000
2015-12-17 00:21:28,0.25,5.21,0.00,13.37,17.92,21.76,15.09,50.64,1013.69,2065.99,1960.19,2100.57,2341.31,599.67,613.89,24.19,0000 0000 0000 0000 000000
2015-12-17 00:26:29,0.26,5.22,0.00,13.38,17.92,21.77,15.17,50.70,1013.69,2065.99,1957.50,2098.58,2339.11,599.95,614.29,24.24,0000 0000 0000 0000 000000
2015-12-17 00:31:30,0.27,5.24,0.00,13.39,17.92,21.75,15.10,50.66,1013.69,2065.99,1954.77,2096.51,2336.84,600.10,614.34,24.29,0000 0000 0000 0000 000000
2015-12-17 00:36:32,0.26,5.25,0.00,13.39,17.91,21.72,15.03,50.52,1013.69,2065.99,1952.14,2094.53,2334.52,599.83,613.95,24.34,0000 0000 0000 0000 000000
2015-12-17 00:41:33,0.27,5.27,0.00,13.35,17.89,21.71,15.05,50.61,1013.69,2066.00,1949.40,2092.50,2332.27,599.74,614.16,24.39,0000 0000 0000 0000 000000
2015-12-17 00:46:34,0.28,5.28,0.00,13.34,17.89,21.70,15.11,50.56,1013.70,2066.00,1946.49,2090.38,2330.00,600.17,614.66,24.44,0000 0000 0000 0000 000000
2015-12-17 00:51:36,0.24,5.29,0.00,13.35,17.87,21.72,15.08,50.56,1013.71,2066.00,1943.94,2088.47,2327.86,599.92,614.26,24.49,0000 0000 0000 0000 000000
2015-12-17 00:56:37,0.24,5.30,0.00,13.33,17.87,21.73,15.15,50.63,1013.69,2066.00,1941.50,2086.71,2325.95,600.29,614.73,24.54,0000 0000 0000 0000 000000
2015-12-17 01:01:38,0.20,5.32,0.00,13.31,17.84,21.68,15.14,50.70,1013.69,2066.01,1939.28,2085.06,2324.16,599.97,614.44,24.59,0000 0000 0000 0000 000000
2015-12-17 01:06:40,0.21,5.33,0.00,13.32,17.83,21.63,15.12,50.66,1013.70,2066.01,1937.26,2083.53,2322.41,600.06,614.63,24.64,0000 0000 0000 0000 000000
2015-12-17 01:11:41,0.23,5.34,0.00,13.32,17.82,21.65,15.12,50.50,1013.72,2066.01,1934.93,2081.86,2320.62,599.88,614.29,24.69,0000 0000 0000 0000 000000
2015-12-17 01:16:43,0.21,5.35,0.00,13.29,17.80,21.64,15.14,50.48,1013.73,2066.03,1932.72,2080.25,2318.79,600.34,614.83,24.74,0000 0000 0000 0000 000000
2015-12-17 01:21:44,0.22,5.36,0.00,13.28,17.79,21.62,15.10,50.52,1013.73,2066.06,1930.51,2078.58,2317.03,600.29,614.68,24.79,0000 0000 0000 0000 000000
2015-12-17 01:26:45,0.22,5.37,0.00,13.25,17.77,21.57,15.12,50.58,1013.74,2066.10,1928.34,2076.89,2315.19,599.94,614.51,24.84,0000 0000 0000 0000 000000
2015-12-17 01:31:47,0.24,5.38,0.00,13.24,17.76,21.60,15.15,50.63,1013.90,2066.27,1926.15,2075.29,2313.33,600.01,614.69,24.89,0000 0000 0000 0000 000000
2015-12-17 01:36:48,0.27,5.40,0.00,13.21,17.74,21.63,15.11,50.70,1014.06,2066.62,1923.95,2073.63,2311.51,600.00,614.77,24.94,0000 0000 0000 0000 000000
2015-12-17 01:41:49,0.20,5.41,0.00,13.24,17.74,21.56,15.07,50.49,1014.17,2066.71,1921.90,2071.99,2309.65,599.90,614.84,24.99,0000 0000 0000 0000 000000
2015-12-17 01:46:51,0.22,5.42,0.00,13.22,17.72,21.58,14.97,50.48,1014.17,2066.68,1919.73,2070.30,2307.75,599.92,614.75,25.04,0000 0000 0000 0000 000000
2015-12-17 01:51:52,0.27,5.43,0.00,13.20,17.72,21.57,15.10,50.58,1014.17,2066.79,1917.16,2068.53,2305.83,599.87,614.86,25.09,0000 0000 0000 0000 000000
2015-12-17 01:56:53,0.25,5.44,0.00,13.22,17.70,21.60,15.16,50.58,1014.16,2066.93,1914.69,2066.79,2304.03,600.07,614.90,25.14,0000 0000 0000 0000 000000
2015-12-17 02:01:55,0.23,5.46,0.00,13.24,17.69,21.55,15.04,50.60,1014.15,2066.94,1912.40,2065.06,2302.14,600.03,614.89,25.19,0000 0000 0000 0000 000000
2015-12-17 02:06:56,0.24,5.47,0.00,13.25,17.68,21.53,15.13,50.61,1014.16,2066.96,1910.10,2063.25,2300.20,599.93,614.75,25.24,0000 0000 0000 0000 000000
2015-12-17 02:11:57,0.37,5.49,0.00,13.24,17.67,21.49,15.09,50.52,1014.17,2066.97,1906.56,2060.68,2297.35,599.88,614.76,25.29,0000 0000 0000 0000 000000
2015-12-17 02:16:59,0.40,5.50,0.00,13.22,17.67,21.50,15.11,50.53,1014.17,2066.98,1902.80,2057.91,2294.27,599.84,614.66,25.34,0000 0000 0000 0000 000000
2015-12-17 02:22:00,0.36,5.52,0.00,13.20,17.66,21.53,15.15,50.58,1014.17,2066.97,1898.88,2055.17,2291.20,600.14,615.20,25.39,0000 0000 0000 0000 000000
2015-12-17 02:27:01,0.29,5.54,0.00,13.20,17.65,21.53,15.09,50.52,1014.17,2066.98,1895.94,2053.01,2288.83,599.97,614.92,25.44,0000 0000 0000 0000 000000
2015-12-17 02:32:03,0.30,5.55,0.00,13.22,17.64,21.52,15.09,50.61,1014.17,2066.99,1892.80,2050.83,2286.50,600.06,614.98,25.49,0000 0000 0000 0000 000000
2015-12-17 02:37:04,0.31,5.57,0.00,13.21,17.64,21.45,15.04,50.59,1014.17,2066.98,1889.68,2048.59,2284.14,599.56,614.65,25.54,0000 0000 0000 0000 000000
2015-12-17 02:42:05,0.37,5.59,0.00,13.17,17.62,21.49,15.09,50.68,1014.17,2066.99,1886.02,2046.21,2281.25,599.84,614.86,25.59,0000 0000 0000 0000 000000
2015-12-17 02:47:06,0.50,5.61,0.00,13.17,17.62,21.49,15.13,50.74,1014.18,2066.99,1881.15,2042.87,2277.52,600.53,615.67,25.64,0000 0000 0000 0000 000000
2015-12-17 02:52:08,0.53,5.64,0.00,13.15,17.62,21.45,15.17,50.69,1014.18,2066.99,1875.89,2039.17,2273.47,600.19,615.20,25.69,0000 0000 0000 0000 000000
2015-12-17 02:57:09,0.68,5.67,0.00,13.13,17.60,21.49,15.10,50.65,1014.19,2066.99,1869.54,2034.72,2268.48,599.86,615.09,25.74,0000 0000 0000 0000 000000
2015-12-17 03:02:10,0.65,5.70,0.00,13.13,17.59,21.46,15.09,50.61,1014.22,2066.99,1862.73,2030.13,2263.41,600.06,615.20,25.79,0000 0000 0000 0000 000000
2015-12-17 03:07:12,0.55,5.73,0.00,13.11,17.58,21.44,15.12,50.63,1014.30,2066.99,1856.93,2026.21,2259.20,600.19,615.49,25.84,0000 0000 0000 0000 000000
2015-12-17 03:12:13,0.47,5.76,0.00,13.12,17.57,21.42,15.06,50.53,1014.28,2066.99,1852.11,2022.80,2255.51,599.66,614.79,25.89,0000 0000 0000 0000 000000
2015-12-17 03:17:14,0.44,5.78,0.00,13.13,17.56,21.38,15.06,50.52,1014.39,2066.99,1847.76,2019.72,2252.10,600.05,615.30,25.94,0000 0000 0000 0000 000000
2015-12-17 03:22:16,0.43,5.80,0.00,13.12,17.54,21.39,15.13,50.67,1014.60,2066.99,1843.51,2016.71,2248.80,600.43,615.83,25.99,0000 0000 0000 0000 000000
2015-12-17 03:27:17,0.41,5.82,0.00,13.14,17.54,21.37,15.21,50.66,1014.58,2066.99,1839.61,2013.89,2245.76,600.18,615.49,26.04,0000 0000 0000 0000 000000
2015-12-17 03:32:18,0.42,5.84,0.00,13.11,17.52,21.34,15.07,50.58,1014.65,2066.99,1835.52,2011.03,2242.67,599.97,615.30,26.09,0000 0000 0000 0000 000000
2015-12-17 03:37:20,0.45,5.87,0.00,13.11,17.51,21.33,15.09,50.58,1014.66,2067.00,1831.03,2007.93,2239.36,599.92,615.48,26.14,0000 0000 0000 0000 000000
2015-12-17 03:42:21,0.45,5.89,0.00,13.09,17.49,21.40,15.15,50.53,1014.66,2067.00,1826.69,2004.86,2236.03,600.26,615.74,26.19,0000 0000 0000 0000 000000
2015-12-17 03:47:23,0.43,5.91,0.00,13.08,17.49,21.36,15.17,50.70,1014.66,2067.00,1822.31,2001.89,2232.90,600.39,615.97,26.24,0000 0000 0000 0000 000000
2015-12-17 03:52:24,0.40,5.93,0.00,13.06,17.47,21.35,15.12,50.77,1014.66,2067.02,1818.60,1999.22,2229.89,599.93,615.54,26.29,0000 0000 0000 0000 000000
2015-12-17 03:57:25,0.39,5.95,0.00,13.04,17.47,21.29,15.14,50.76,1014.66,2067.03,1814.68,1996.42,2226.86,599.91,615.51,26.34,0000 0000 0000 0000 000000
2015-12-17 04:02:27,0.37,5.97,0.00,13.05,17.47,21.30,15.14,50.70,1014.66,2067.03,1811.15,1993.89,2224.12,600.22,615.80,26.39,0000 0000 0000 0000 000000
2015-12-17 04:07:28,0.34,5.99,0.00,13.01,17.45,21.35,15.09,50.71,1014.68,2067.05,1807.91,1991.55,2221.47,599.92,615.51,26.44,0000 0000 0000 0000 000000
2015-12-17 04:12:30,0.33,6.01,0.00,13.01,17.44,21.29,15.10,50.47,1014.69,2067.06,1804.83,1989.28,2219.04,599.87,615.36,26.49,0000 0000 0000 0000 000000
2015-12-17 04:17:31,0.31,6.02,0.00,13.02,17.43,21.30,15.14,50.70,1014.77,2067.07,1801.93,1987.14,2216.64,600.13,615.93,26.54,0000 0000 0000 0000 000000
2015-12-17 04:22:33,0.33,6.04,0.00,13.02,17.42,21.29,15.16,50.66,1014.76,2067.06,1798.96,1985.02,2214.25,599.94,615.69,26.59,0000 0000 0000 0000 000000
2015-12-17 04:27:34,0.34,6.06,0.00,13.00,17.42,21.29,15.14,50.67,1014.86,2067.10,1795.60,1982.80,2211.73,600.37,616.13,26.64,0000 0000 0000 0000 000000
2015-12-17 04:32:35,0.36,6.07,0.00,12.99,17.41,21.24,15.09,50.67,1014.92,2067.22,1792.33,1980.50,2209.23,600.00,615.92,26.69,0000 0000 0000 0000 000000
2015-12-17 04:37:37,0.36,6.09,0.00,13.01,17.40,21.24,15.08,50.64,1015.08,2067.44,1789.39,1978.26,2206.67,599.83,615.74,26.74,0000 0000 0000 0000 000000
2015-12-17 04:42:38,0.34,6.11,0.00,13.00,17.39,21.29,15.17,50.58,1015.15,2067.53,1786.33,1975.99,2204.06,600.38,616.35,26.79,0000 0000 0000 0000 000000
2015-12-17 04:47:39,0.36,6.13,0.00,12.97,17.39,21.27,15.10,50.53,1015.15,2067.54,1783.10,1973.60,2201.47,599.84,615.97,26.84,0000 0000 0000 0000 000000
2015-12-17 04:52:41,0.38,6.15,0.00,12.97,17.39,21.22,15.14,50.58,1015.15,2067.65,1779.76,1971.28,2198.97,599.93,616.00,26.89,0000 0000 0000 0000 000000
2015-12-17 04:57:42,0.36,6.17,0.00,12.97,17.37,21.24,15.11,50.73,1015.15,2067.74,1776.28,1968.99,2196.45,599.79,615.82,26.94,0000 0000 0000 0000 000000
2015-12-17 05:02:43,0.38,6.18,0.00,12.96,17.37,21.24,15.17,50.77,1015.15,2067.83,1772.77,1966.61,2193.91,600.28,616.35,26.99,0000 0000 0000 0000 000000
2015-12-17 05:07:44,0.31,6.20,0.00,12.95,17.37,21.26,15.08,50.74,1015.15,2067.90,1769.77,1964.41,2191.42,599.80,615.90,27.04,0000 0000 0000 0000 000000
2015-12-17 05:12:46,0.37,6.22,0.00,12.93,17.35,21.22,15.17,50.66,1015.15,2067.92,1766.48,1962.18,2188.98,600.10,616.17,27.09,0000 0000 0000 0000 000000
2015-12-17 05:17:47,0.34,6.24,0.00,12.93,17.34,21.22,15.05,50.79,1015.15,2067.95,1763.18,1959.95,2186.61,599.79,615.97,27.14,0000 0000 0000 0000 000000
2015-12-17 05:22:48,0.34,6.26,0.00,12.93,17.34,21.25,15.12,50.77,1015.15,2067.98,1760.10,1957.75,2184.19,600.28,616.41,27.19,0000 0000 0000 0000 000000
2015-12-17 05:27:50,0.29,6.27,0.00,12.93,17.32,21.20,15.13,50.67,1015.16,2067.97,1757.53,1955.70,2181.78,600.14,616.14,27.25,0000 0000 0000 0000 000000
2015-12-17 05:32:51,0.33,6.29,0.00,12.92,17.32,21.23,15.14,50.74,1015.19,2067.98,1754.52,1953.58,2179.48,599.98,616.23,27.30,0000 0000 0000 0000 000000
2015-12-17 05:37:52,0.33,6.30,0.00,12.93,17.32,21.27,15.12,50.82,1015.34,2067.98,1751.46,1951.49,2177.21,599.82,616.04,27.35,0000 0000 0000 0000 000000
2015-12-17 05:42:53,0.32,6.32,0.00,12.95,17.32,21.21,15.09,50.63,1015.51,2067.98,1748.51,1949.38,2174.95,600.34,616.69,27.40,0000 0000 0000 0000 000000
2015-12-17 05:47:54,0.32,6.34,0.00,12.93,17.31,21.19,15.23,50.61,1015.52,2067.98,1745.55,1947.30,2172.72,599.89,616.29,27.45,0000 0000 0000 0000 000000
2015-12-17 05:52:56,0.33,6.35,0.00,12.93,17.29,21.20,15.12,50.80,1015.53,2067.98,1742.58,1945.17,2170.43,599.66,616.01,27.50,0000 0000 0000 0000 000000
2015-12-17 05:57:57,0.32,6.37,0.00,12.90,17.29,21.17,15.21,50.81,1015.49,2067.98,1739.58,1943.10,2168.10,600.00,616.38,27.55,0000 0000 0000 0000 000000
2015-12-17 06:02:58,0.30,6.39,0.00,12.89,17.29,21.17,15.20,50.78,1015.37,2067.99,1736.85,1941.11,2165.86,600.06,616.42,27.60,0000 0000 0000 0000 000000
2015-12-17 06:07:59,0.33,6.40,0.00,12.87,17.27,21.20,15.17,50.83,1015.45,2067.99,1733.78,1939.02,2163.61,599.89,616.33,27.65,0000 0000 0000 0000 000000
2015-12-17 06:13:01,0.33,6.42,0.00,12.89,17.27,21.13,15.10,50.91,1015.58,2067.99,1730.81,1936.92,2161.32,599.90,616.29,27.70,0000 0000 0000 0000 000000
2015-12-17 06:18:02,0.32,6.43,0.00,12.87,17.27,21.15,15.13,50.79,1015.54,2067.99,1728.11,1934.91,2159.10,599.95,616.43,27.75,0000 0000 0000 0000 000000
2015-12-17 06:23:03,0.32,6.45,0.00,12.88,17.27,21.20,15.11,50.73,1015.56,2067.99,1725.42,1932.93,2156.83,600.17,616.62,27.80,0000 0000 0000 0000 000000
2015-12-17 06:28:04,0.30,6.47,0.00,12.87,17.26,21.16,15.19,50.96,1015.64,2067.99,1722.50,1930.89,2154.67,600.16,616.67,27.85,0000 0000 0000 0000 000000
2015-12-17 06:33:05,0.28,6.48,0.00,12.86,17.24,21.14,15.15,50.74,1015.67,2067.99,1719.99,1929.03,2152.60,600.17,616.67,27.90,0000 0000 0000 0000 000000
2015-12-17 06:38:07,0.29,6.50,0.00,12.85,17.24,21.16,15.20,50.88,1015.86,2067.99,1717.39,1927.17,2150.54,600.19,616.86,27.95,0000 0000 0000 0000 000000
2015-12-17 06:43:08,0.29,6.51,0.00,12.88,17.23,21.15,15.25,50.90,1016.11,2067.99,1714.76,1925.42,2148.56,600.00,616.78,28.00,0000 0000 0000 0000 000000
2015-12-17 06:48:09,0.27,6.52,0.00,12.86,17.22,21.09,15.18,50.79,1016.13,2067.99,1712.45,1923.62,2146.62,599.76,616.63,28.05,0000 0000 0000 0000 000000
2015-12-17 06:53:11,0.28,6.54,0.00,12.85,17.22,21.10,15.23,50.81,1016.13,2067.99,1709.99,1921.85,2144.69,600.03,617.01,28.10,0000 0000 0000 0000 000000
2015-12-17 06:58:12,0.25,6.55,0.00,12.84,17.22,21.08,15.14,50.71,1016.13,2067.99,1707.63,1920.21,2142.75,599.59,616.56,28.15,0000 0000 0000 0000 000000
2015-12-17 07:03:13,0.30,6.57,0.00,12.83,17.22,21.07,15.12,50.84,1016.13,2067.99,1705.10,1918.48,2140.76,599.83,616.87,28.20,0000 0000 0000 0000 000000
2015-12-17 07:08:14,0.28,6.58,0.00,12.84,17.20,21.09,15.14,50.91,1016.13,2067.99,1702.60,1916.72,2138.87,599.68,616.64,28.25,0000 0000 0000 0000 000000
2015-12-17 07:13:16,0.31,6.60,0.00,12.84,17.19,21.05,15.10,50.83,1016.13,2068.00,1699.91,1914.82,2136.77,599.82,616.73,28.30,0000 0000 0000 0000 000000
2015-12-17 07:18:17,0.27,6.61,0.00,12.84,17.19,21.05,15.16,50.85,1016.15,2068.00,1697.55,1912.92,2134.69,599.74,616.69,28.35,0000 0000 0000 0000 000000
2015-12-17 07:23:18,0.28,6.62,0.00,12.82,17.19,21.11,15.19,50.94,1016.18,2068.00,1695.16,1911.26,2132.77,600.09,617.10,28.40,0000 0000 0000 0000 000000
2015-12-17 07:28:20,0.29,6.64,0.00,12.83,17.19,21.06,15.17,50.94,1016.16,2068.00,1692.61,1909.48,2130.82,600.13,617.05,28.45,0000 0000 0000 0000 000000
2015-12-17 07:33:21,0.32,6.65,0.00,12.80,17.19,21.03,15.13,51.02,1016.29,2068.00,1689.83,1907.60,2128.79,599.96,617.05,28.50,0000 0000 0000 0000 000000
2015-12-17 07:38:22,0.27,6.67,0.00,12.81,17.19,21.08,15.12,50.90,1016.42,2068.00,1687.47,1905.75,2126.75,599.96,617.13,28.55,0000 0000 0000 0000 000000
2015-12-17 07:43:24,0.28,6.68,0.00,12.82,17.18,21.09,15.08,50.89,1016.31,2068.00,1685.08,1904.03,2124.75,599.70,616.73,28.60,0000 0000 0000 0000 000000
2015-12-17 07:48:25,0.28,6.70,0.00,12.80,17.17,21.08,15.10,50.73,1016.29,2068.00,1682.68,1902.29,2122.81,600.01,617.12,28.65,0000 0000 0000 0000 000000
2015-12-17 07:53:26,0.28,6.71,0.00,12.79,17.17,21.15,15.16,50.88,1016.32,2068.00,1680.34,1900.53,2120.86,600.37,617.52,28.70,0000 0000 0000 0000 000000
2015-12-17 07:58:27,0.28,6.73,0.00,12.79,17.16,21.06,15.14,50.95,1016.54,2068.01,1677.86,1898.81,2118.97,599.76,617.09,28.75,0000 0000 0000 0000 000000
2015-12-17 08:03:28,0.27,6.74,0.00,12.79,17.14,21.03,15.25,51.05,1016.61,2068.02,1675.51,1897.15,2117.15,600.21,617.37,28.80,0000 0000 0000 0000 000000
2015-12-17 08:08:30,0.28,6.75,0.00,12.78,17.14,21.06,15.18,50.98,1016.62,2068.02,1673.04,1895.43,2115.24,599.99,617.38,28.85,0000 0000 0000 0000 000000
2015-12-17 08:13:31,0.30,6.77,0.00,12.78,17.13,21.05,15.13,50.78,1016.63,2068.03,1670.52,1893.64,2113.33,599.64,617.02,28.90,0000 0000 0000 0000 000000
2015-12-17 08:18:32,0.29,6.78,0.00,12.76,17.12,21.03,15.12,50.84,1016.70,2068.03,1668.02,1891.87,2111.43,599.67,617.02,28.95,0000 0000 0000 0000 000000
2015-12-17 08:23:34,0.30,6.80,0.00,12.77,17.12,21.03,15.10,50.92,1016.84,2068.01,1665.44,1889.92,2109.49,599.47,616.94,29.00,0000 0000 0000 0000 000000
2015-12-17 08:28:35,0.32,6.81,0.00,12.78,17.12,20.97,15.13,51.04,1016.94,2068.03,1662.89,1888.03,2107.30,600.04,617.57,29.05,0000 0000 0000 0000 000000
2015-12-17 08:33:37,0.33,6.83,0.00,12.78,17.12,20.98,15.15,51.13,1017.08,2068.05,1660.23,1886.01,2105.17,600.02,617.79,29.10,0000 0000 0000 0000 000000
2015-12-17 08:38:38,0.33,6.85,0.00,12.75,17.12,21.01,15.16,51.23,1017.09,2068.09,1657.55,1884.08,2103.02,600.03,617.81,29.15,0000 0000 0000 0000 000000
2015-12-17 08:43:40,0.34,6.87,0.00,12.76,17.12,21.01,15.16,51.15,1017.10,2068.13,1654.84,1881.99,2100.68,599.75,617.42,29.20,0000 0000 0000 0000 000000
2015-12-17 08:48:41,0.50,6.89,0.00,12.75,17.12,20.99,15.17,51.26,1017.10,2068.11,1651.07,1879.08,2097.47,600.25,617.97,29.25,0000 0000 0000 0000 000000
2015-12-17 08:53:42,0.45,6.91,0.00,12.74,17.13,21.05,15.20,51.27,1017.11,2068.10,1647.17,1876.20,2094.32,600.13,617.86,29.30,0000 0000 0000 0000 000000
2015-12-17 08:58:44,0.35,6.93,0.00,12.75,17.14,21.02,15.15,51.38,1017.12,2068.09,1644.22,1873.90,2091.81,599.85,617.55,29.35,0000 0000 0000 0000 000000
2015-12-17 09:03:45,0.37,6.95,0.00,12.76,17.14,21.02,15.15,51.32,1017.12,2068.06,1641.29,1871.62,2089.26,600.16,617.79,29.40,0000 0000 0000 0000 000000
2015-12-17 09:08:47,0.30,6.97,0.00,12.76,17.14,21.06,15.08,51.27,1017.17,2068.07,1639.09,1869.63,2087.04,599.32,617.03,29.45,0000 0000 0000 0000 000000
2015-12-17 09:13:48,0.35,6.98,0.00,12.75,17.14,21.08,15.12,51.37,1017.15,2068.05,1636.07,1867.63,2084.79,599.90,617.74,29.50,0000 0000 0000 0000 000000
2015-12-17 09:18:49,0.29,7.00,0.00,12.75,17.14,21.03,15.19,51.31,1017.25,2068.03,1633.67,1865.81,2082.85,599.75,617.48,29.55,0000 0000 0000 0000 000000
2015-12-17 09:23:51,0.29,7.01,0.00,12.73,17.15,21.05,15.20,51.25,1017.36,2068.02,1631.55,1864.04,2080.70,599.86,617.65,29.60,0000 0000 0000 0000 000000
2015-12-17 09:28:52,0.41,7.03,0.00,12.72,17.15,21.03,15.24,51.10,1017.46,2068.01,1628.61,1861.54,2077.94,600.03,618.01,29.65,0000 0000 0000 0000 000000
2015-12-17 09:33:53,0.42,7.05,0.00,12.74,17.15,21.06,15.12,51.09,1017.51,2068.01,1625.20,1859.10,2075.20,599.76,617.71,29.70,0000 0000 0000 0000 000000
2015-12-17 09:38:54,0.43,7.07,0.00,12.73,17.14,21.03,15.14,51.09,1017.58,2068.01,1621.76,1856.54,2072.44,599.88,617.91,29.75,0000 0000 0000 0000 000000
2015-12-17 09:43:55,0.51,7.10,0.00,12.71,17.14,21.02,15.19,51.21,1017.59,2068.02,1617.80,1853.84,2069.26,600.10,618.19,29.80,0000 0000 0000 0000 000000
2015-12-17 09:48:57,0.63,7.13,0.00,12.71,17.14,21.01,15.21,51.08,1017.60,2068.01,1612.76,1850.29,2065.35,600.19,618.24,29.85,0000 0000 0000 0000 000000
2015-12-17 09:53:58,0.55,7.16,0.00,12.73,17.12,20.98,15.17,51.20,1017.61,2068.00,1608.12,1846.95,2061.68,600.09,618.10,29.90,0000 0000 0000 0000 000000
2015-12-17 09:58:59,0.55,7.19,0.47,12.72,17.12,21.00,15.22,51.21,1017.63,2068.01,1603.60,1843.74,2058.20,600.06,618.11,29.95,0000 0000 0000 0000 000000
2015-12-17 10:04:01,0.55,7.21,1.00,12.72,17.09,21.00,15.17,51.24,1017.77,2068.03,1599.23,1840.57,2054.72,600.24,618.43,30.00,0000 0000 0000 0000 000000
2015-12-17 10:09:02,0.50,7.24,1.00,12.72,17.09,20.99,15.19,51.13,1017.85,2068.02,1595.31,1837.53,2051.33,599.80,618.08,30.05,0000 0000 0000 0000 000000
2015-12-17 10:14:03,0.59,7.27,1.00,12.70,17.09,20.94,15.11,51.04,1017.91,2068.05,1590.68,1834.21,2047.80,599.88,618.14,30.10,0000 0000 0000 0000 000000
2015-12-17 10:19:05,0.55,7.30,1.00,12.71,17.07,20.97,15.12,51.17,1017.96,2068.06,1586.18,1831.01,2044.49,599.68,618.01,30.15,0000 0000 0000 0000 000000
2015-12-17 10:24:06,0.52,7.32,1.00,12.69,17.07,20.95,15.31,51.21,1018.06,2068.04,1582.16,1827.95,2041.07,600.18,618.65,30.20,0000 0000 0000 0000 000000
2015-12-17 10:29:08,0.50,7.35,1.00,12.69,17.07,20.98,15.15,51.20,1018.08,2068.03,1578.07,1825.00,2037.88,599.63,618.17,30.25,0000 0000 0000 0000 000000
2015-12-17 10:34:09,0.69,7.38,1.00,12.69,17.07,20.95,15.13,51.27,1018.08,2068.06,1573.24,1821.45,2033.92,599.84,618.33,30.30,0000 0000 0000 0000 000000
2015-12-17 10:39:11,0.73,7.42,1.00,12.65,17.07,20.94,15.15,51.20,1018.06,2068.03,1567.33,1817.41,2029.53,599.76,618.33,30.35,0000 0000 0000 0000 000000
2015-12-17 10:44:12,0.67,7.45,1.00,12.65,17.07,20.90,15.18,51.23,1017.96,2068.02,1561.83,1813.69,2025.47,599.94,618.38,30.40,0000 0000 0000 0000 000000
2015-12-17 10:49:13,0.65,7.49,1.00,12.67,17.06,20.93,15.17,51.13,1017.77,2068.02,1556.64,1810.17,2021.62,600.01,618.24,30.45,0000 0000 0000 0000 000000
2015-12-17 10:54:14,0.64,7.52,1.00,12.65,17.05,20.92,15.16,51.18,1017.67,2068.03,1551.43,1806.67,2017.84,599.75,618.04,30.50,0000 0000 0000 0000 000000
2015-12-17 10:59:16,0.63,7.55,1.00,12.64,17.04,20.94,15.18,51.38,1017.71,2068.03,1546.60,1803.26,2014.02,599.95,618.23,30.55,0000 0000 0000 0000 000000
2015-12-17 11:04:17,0.64,7.58,1.00,12.65,17.04,20.94,15.19,51.28,1017.63,2068.03,1541.59,1799.83,2010.17,600.04,618.30,30.60,0000 0000 0000 0000 000000
2015-12-17 11:09:18,0.67,7.62,1.00,12.62,17.04,20.92,15.25,51.28,1017.62,2068.02,1536.26,1796.27,2006.31,600.11,618.46,30.65,0000 0000 0000 0000 000000
2015-12-17 11:14:20,0.65,7.65,1.00,12.59,17.03,20.96,15.16,51.23,1017.70,2068.02,1530.99,1792.82,2002.48,600.34,618.79,30.70,0000 0000 0000 0000 000000
2015-12-17 11:19:21,0.61,7.68,1.00,12.57,17.02,20.94,15.11,51.16,1017.89,2068.02,1526.06,1789.68,1998.93,599.82,618.38,30.75,0000 0000 0000 0000 000000
2015-12-17 11:24:22,0.58,7.71,1.00,12.56,17.01,20.91,15.24,51.13,1017.98,2068.03,1521.49,1786.60,1995.55,599.73,618.35,30.80,0000 0000 0000 0000 000000
2015-12-17 11:29:24,0.57,7.74,1.00,12.58,16.99,20.87,15.24,51.27,1018.02,2068.03,1517.00,1783.62,1992.21,599.82,618.40,30.86,0000 0000 0000 0000 000000
2015-12-17 11:34:25,0.57,7.77,1.00,12.58,16.99,20.88,15.16,51.22,1018.00,2068.07,1512.65,1780.66,1988.98,599.67,618.33,30.91,0000 0000 0000 0000 000000
2015-12-17 11:39:26,0.57,7.79,1.00,12.57,16.97,20.83,15.28,51.33,1018.06,2068.04,1508.22,1777.68,1985.78,600.24,618.87,30.96,0000 0000 0000 0000 000000
2015-12-17 11:44:28,0.65,7.83,1.00,12.57,16.97,20.85,15.14,51.23,1018.07,2068.07,1503.43,1774.45,1982.26,599.92,618.65,31.01,0000 0000 0000 0000 000000
2015-12-17 11:49:29,0.78,7.86,1.00,12.57,16.96,20.84,15.20,51.12,1018.08,2068.09,1497.59,1770.59,1978.08,600.09,618.74,31.06,0000 0000 0000 0000 000000
2015-12-17 11:54:30,0.66,7.90,1.00,12.56,16.94,20.82,15.18,51.09,1018.08,2068.17,1492.29,1767.18,1974.36,600.05,618.77,31.11,0000 0000 0000 0000 000000
2015-12-17 11:59:32,0.70,7.93,1.00,12.55,16.94,20.82,15.19,51.21,1018.08,2068.26,1487.07,1763.77,1970.60,600.05,618.77,31.16,0000 0000 0000 0000 000000
2015-12-17 12:04:33,0.79,7.97,1.00,12.56,16.92,20.78,15.18,51.13,1018.09,2068.34,1481.23,1759.96,1966.45,600.04,618.72,31.21,0000 0000 0000 0000 000000
2015-12-17 12:09:34,0.86,8.02,1.00,12.56,16.92,20.83,15.18,51.16,1018.17,2068.43,1474.94,1755.72,1961.83,600.09,618.92,31.26,0000 0000 0000 0000 000000
2015-12-17 12:14:35,0.82,8.06,1.00,12.54,16.91,20.79,15.14,51.15,1018.21,2068.52,1468.89,1751.64,1957.36,599.94,618.80,31.31,0000 0000 0000 0000 000000
2015-12-17 12:19:37,0.81,8.10,1.00,12.54,16.89,20.81,15.21,51.24,1018.26,2068.57,1462.79,1747.71,1953.09,600.00,618.84,31.36,0000 0000 0000 0000 000000
2015-12-17 12:24:38,0.77,8.14,1.00,12.53,16.89,20.79,15.18,51.24,1018.43,2068.72,1457.19,1744.00,1948.97,600.02,618.99,31.41,0000 0000 0000 0000 000000
2015-12-17 12:29:39,0.73,8.17,1.00,12.56,16.87,20.87,15.17,51.25,1018.55,2068.86,1451.93,1740.41,1945.04,600.03,619.21,31.46,0000 0000 0000 0000 000000
2015-12-17 12:34:40,0.65,8.21,1.00,12.54,16.87,20.77,15.19,51.14,1018.54,2068.90,1447.01,1737.07,1941.36,600.03,618.96,31.51,0000 0000 0000 0000 000000
2015-12-17 12:39:41,0.68,8.24,1.00,12.55,16.87,20.74,15.32,51.17,1018.54,2068.86,1442.12,1733.79,1937.75,600.15,619.14,31.56,0000 0000 0000 0000 000000
2015-12-17 12:44:43,0.66,8.27,1.00,12.53,16.85,20.74,15.22,51.25,1018.57,2068.89,1437.31,1730.59,1934.24,600.21,619.26,31.61,0000 0000 0000 0000 000000
2015-12-17 12:49:44,0.61,8.31,1.00,12.52,16.84,20.75,15.18,51.27,1018.57,2068.97,1432.76,1727.64,1930.95,599.81,619.01,31.66,0000 0000 0000 0000 000000
2015-12-17 12:54:45,0.57,8.34,1.00,12.52,16.84,20.71,15.26,51.27,1018.57,2068.96,1428.55,1724.88,1927.80,599.97,619.05,31.71,0000 0000 0000 0000 000000